Vorticity
nan nan nan nan nan nan nan nan nan nan nan nan nan nan nan nan nan nan nan nan nan nan nan nan nan nan nan nan nan nan nan nan nan nan nan nan nan nan nan nan nan nan nan nan nan nan nan nan nan nan nan nan nan nan nan nan nan nan nan nan nan nan nan nan nan nan nan nan nan
nan 9 9 9 9 9 9 10 10 10 11 11 11 10 10 9 10 9 9 9 10 10 9 9 11 11 10 8 6 7 7 7 7 7 7 7 7 8 9 8 8 8 8 9 10 10 9 10 11 11 10 10 9 9 9 8 8 8 8 9 12 11 11 12 12 11 13 15 nan
nan 7 7 8 9 9 10 10 12 12 10 9 10 10 9 9 9 9 9 10 10 10 9 10 10 9 8 6 6 7 7 7 7 7 8 7 7 8 8 8 8 8 9 9 9 9 8 10 11 11 10 8 8 9 9 9 9 9 11 13 13 11 10 11 12 12 14 14 nan
nan 6 7 9 10 8 7 10 13 10 7 8 9 8 8 9 9 9 9 10 9 8 9 11 9 7 6 6 8 8 8 8 7 7 8 8 7 8 8 8 8 8 8 8 8 9 9 10 12 11 9 8 9 10 9 8 9 10 11 13 11 10 10 10 11 11 12 10 nan
nan 6 7 9 9 6 7 11 11 7 6 8 9 9 8 8 9 10 10 9 8 10 12 11 8 7 8 8 8 8 8 8 7 7 7 8 7 8 7 8 8 8 8 8 8 9 9 11 12 10 10 10 11 10 7 6 9 10 10 10 10 10 10 10 10 10 9 9 nan
nan 8 8 9 9 6 7 11 9 6 6 9 11 11 9 10 11 12 11 10 10 10 9 7 7 8 9 8 7 7 7 7 7 7 8 8 8 7 7 7 8 9 9 8 9 9 9 11 11 10 10 10 10 8 6 8 10 10 10 9 9 9 9 8 9 8 7 5 nan
nan 9 8 9 7 6 8 10 7 6 7 10 11 10 10 11 13 13 11 10 9 7 5 5 8 9 9 7 7 7 7 7 7 7 8 8 7 7 7 8 8 9 9 9 9 9 9 11 11 10 9 10 9 8 7 9 9 8 8 8 9 9 8 9 9 7 5 3 nan
nan 8 8 7 6 6 8 7 6 6 7 10 12 11 11 11 11 10 9 8 7 6 6 9 11 9 9 8 7 8 8 7 7 7 7 7 7 7 7 8 8 8 9 9 9 9 9 11 10 9 9 9 8 7 6 6 6 7 7 9 9 8 8 8 8 6 4 4 nan
nan 8 7 6 5 6 7 7 6 7 9 11 12 10 9 9 8 6 5 6 7 8 8 10 11 9 8 8 8 8 7 7 7 7 7 7 7 7 8 8 8 9 9 9 9 9 10 11 10 9 8 8 6 5 4 5 6 7 9 11 9 7 6 6 5 5 5 7 nan
nan 8 6 5 6 7 7 7 7 8 9 10 11 9 9 8 7 6 5 7 10 10 10 11 10 8 7 7 7 7 7 7 7 7 7 7 7 8 8 8 8 8 9 9 9 10 11 10 8 7 7 6 5 5 5 6 7 8 11 10 6 5 5 6 6 6 8 8 nan
nan 6 5 6 8 7 7 7 7 7 8 11 11 9 8 8 8 8 8 10 11 11 10 10 9 7 6 6 7 7 7 7 7 7 7 7 8 8 8 8 8 9 9 9 10 10 11 9 7 6 6 5 7 8 8 7 8 8 10 6 4 5 7 7 7 9 9 8 nan
nan 6 6 8 9 7 6 6 7 8 10 12 11 8 6 7 9 9 9 9 9 9 9 9 8 7 6 7 8 7 8 7 7 7 7 7 8 8 8 9 8 9 9 10 11 10 9 7 7 6 7 8 9 9 8 7 8 9 9 7 7 9 9 8 9 9 8 7 nan
nan 6 7 9 9 7 6 6 8 10 12 13 9 6 5 8 9 8 7 7 7 8 8 8 7 7 7 8 8 8 8 7 7 7 7 8 8 8 8 9 8 9 9 10 10 9 8 7 7 7 8 9 9 7 6 8 10 10 11 11 11 11 10 10 10 9 7 7 nan
nan 7 8 10 9 6 7 7 8 11 13 11 6 5 5 6 7 6 6 7 8 7 7 7 6 7 8 9 8 8 8 7 7 7 8 8 8 8 8 8 8 9 10 9 8 8 7 7 8 9 9 9 8 8 8 10 11 11 12 12 12 11 11 11 10 10 9 10 nan
nan 8 9 10 8 6 7 7 7 11 12 9 6 5 5 6 6 6 8 9 7 6 7 7 7 9 9 9 8 8 7 7 7 8 8 8 8 8 8 8 8 9 9 8 8 8 8 8 9 9 9 9 9 10 10 11 11 12 12 12 12 11 11 10 11 11 11 11 nan
nan 9 10 9 7 5 6 5 7 11 11 9 8 7 6 7 8 8 10 9 7 7 10 10 8 8 8 8 8 8 8 7 8 8 8 8 7 8 8 8 8 8 8 9 9 8 9 9 9 9 9 10 11 11 12 12 12 11 11 11 11 10 10 10 11 11 10 11 nan
nan 9 10 9 6 4 4 5 9 12 13 12 9 7 7 8 9 10 10 9 8 10 11 9 8 8 8 8 8 8 8 8 8 8 8 8 7 8 8 8 8 9 9 9 9 8 8 9 9 9 10 11 12 12 12 13 12 10 10 10 9 9 9 10 10 10 9 9 nan
nan 9 9 7 5 5 5 7 11 14 14 11 8 8 9 10 11 10 10 9 10 11 10 8 8 9 9 8 8 8 9 9 8 8 8 7 8 8 8 8 9 9 9 9 9 9 8 9 9 10 11 12 12 12 12 12 11 9 9 9 9 9 9 9 9 9 8 8 nan
nan 9 9 6 4 5 7 9 11 13 12 10 9 10 11 10 9 9 9 9 10 10 9 7 7 8 9 8 7 7 8 9 9 8 7 7 8 8 8 8 9 9 9 9 9 9 9 10 11 11 12 12 11 11 10 10 9 9 9 9 9 8 8 8 8 8 7 7 nan
nan 10 8 6 5 7 8 10 11 11 10 10 11 10 9 8 7 8 8 7 8 9 9 8 8 9 9 9 7 7 7 9 9 8 8 8 8 8 8 9 9 9 9 9 10 10 11 11 12 12 12 11 10 9 9 9 9 8 9 9 7 7 7 7 7 7 7 8 nan
nan 10 7 6 8 8 9 11 12 11 10 10 9 8 7 7 7 7 7 6 7 8 8 8 9 9 9 9 8 7 7 8 9 8 8 8 8 8 9 9 10 10 10 11 12 12 13 13 12 12 11 10 9 9 9 9 8 8 9 8 6 5 6 7 8 8 9 9 nan
nan 10 7 7 8 9 10 11 11 10 9 8 8 7 7 6 7 7 7 7 7 7 7 8 9 9 9 9 8 8 7 8 9 8 8 8 8 8 8 10 10 11 13 14 14 15 14 14 12 11 10 9 8 9 9 9 8 7 6 5 5 5 6 8 9 9 10 10 nan
nan 9 6 6 10 10 11 11 10 9 8 8 8 7 7 7 7 7 8 8 8 7 7 8 10 10 9 8 8 8 8 8 8 8 8 7 7 8 8 10 11 14 15 15 13 14 15 12 10 10 9 9 8 8 8 8 8 7 6 5 6 7 8 9 9 9 10 11 nan
nan 7 4 9 13 11 10 10 9 8 8 8 8 7 7 7 7 7 8 8 8 8 7 7 10 10 9 8 9 8 8 8 8 7 7 7 7 8 9 10 12 14 15 11 14 17 18 15 12 10 9 9 9 8 8 8 7 7 6 6 7 8 9 9 9 10 11 12 nan
nan 7 6 11 13 11 10 9 9 8 8 8 8 8 8 8 7 8 8 8 8 8 8 8 9 9 9 9 9 8 8 8 8 7 7 7 7 9 11 12 14 13 12 9 12 15 19 20 18 15 11 9 9 9 8 7 7 7 7 7 8 9 10 10 11 12 12 13 nan
nan 7 8 11 11 10 9 9 8 8 8 8 8 8 8 8 8 8 8 8 8 8 8 7 7 8 9 9 9 9 8 9 9 8 7 7 8 10 12 13 15 13 11 12 10 9 10 13 17 17 16 11 10 9 9 8 7 7 8 9 10 10 10 10 11 12 13 13 nan
nan 8 9 11 11 9 8 8 8 9 8 9 9 8 8 7 8 10 9 8 8 8 7 7 7 7 8 10 10 9 8 8 9 8 8 8 9 11 13 14 15 14 14 13 8 5 4 5 9 13 16 14 11 10 9 8 7 8 9 10 11 10 10 10 11 12 12 11 nan
nan 10 10 10 9 8 7 8 9 9 9 9 9 8 9 9 9 9 8 8 8 6 5 6 7 7 8 11 12 11 9 8 8 9 9 9 11 12 13 15 17 16 16 10 6 4 4 3 4 8 12 15 13 10 9 9 9 10 10 11 10 10 10 12 12 12 11 10 nan
nan 11 10 9 8 8 8 9 9 9 8 8 9 9 10 9 9 8 9 9 6 3 4 7 8 9 11 12 12 11 10 8 8 9 9 10 11 12 13 16 18 17 13 7 4 3 3 3 3 5 8 14 15 11 10 9 9 10 10 10 9 9 10 11 10 9 9 10 nan
nan 10 10 9 8 8 9 9 8 8 7 9 11 10 9 9 9 9 9 7 4 4 6 9 11 12 12 11 10 10 10 9 9 10 10 11 12 13 13 18 21 20 13 7 4 4 3 2 2 3 5 10 13 12 10 9 9 10 10 9 8 8 9 9 9 9 10 10 nan
nan 9 9 8 7 10 11 10 9 9 8 11 12 10 9 9 9 7 6 6 6 8 10 11 12 11 10 9 9 10 10 10 10 11 11 11 12 12 13 20 24 22 15 9 5 6 5 3 3 3 4 8 11 10 9 8 9 9 9 8 7 8 10 12 11 10 10 10 nan
nan 9 9 7 8 11 12 11 9 10 10 10 10 9 9 8 6 7 7 8 9 10 10 10 11 10 9 8 9 10 10 10 10 10 10 11 11 12 13 18 18 16 13 9 5 6 6 4 3 4 5 8 11 10 9 9 10 10 9 9 9 10 11 11 10 9 10 12 nan
nan 10 9 8 8 11 12 11 9 9 9 8 7 7 7 6 7 9 8 8 10 10 9 9 9 9 9 9 9 10 10 10 10 10 10 10 10 10 11 11 9 10 12 9 5 4 4 3 4 5 6 10 12 11 10 11 12 11 10 9 9 9 9 10 10 10 11 13 nan
nan 14 11 8 7 8 9 9 9 9 9 8 7 8 8 9 10 8 5 6 9 9 9 9 10 10 10 10 11 10 10 10 11 10 9 9 9 10 11 12 12 13 12 7 4 3 2 3 4 6 8 12 14 11 10 11 12 10 9 8 8 8 9 10 10 11 11 13 nan
nan 15 11 7 6 7 8 9 11 11 10 9 8 9 9 10 9 6 5 7 9 10 10 10 10 10 10 10 11 10 10 10 10 10 9 9 9 9 12 15 19 17 12 4 2 1 2 3 5 7 11 14 13 10 9 11 11 9 8 8 9 8 9 10 11 11 11 11 nan
nan 12 11 10 9 8 9 10 11 10 9 8 8 8 9 9 7 8 7 8 9 10 10 9 10 10 10 9 9 10 11 11 9 9 9 9 9 9 11 12 15 14 9 3 2 1 1 3 6 9 13 14 12 10 10 11 10 8 8 9 9 9 10 11 11 11 10 9 nan
nan 12 13 13 10 8 9 11 10 8 7 7 8 10 11 9 7 8 7 8 9 10 9 9 9 9 9 9 9 10 12 11 10 10 9 9 9 9 10 9 10 8 6 4 2 1 1 4 8 12 15 13 11 10 10 10 10 8 9 10 10 10 12 12 10 10 9 7 nan
nan 14 14 12 9 8 10 10 8 8 9 8 7 10 10 7 6 7 7 8 10 11 9 9 9 10 10 10 9 10 11 10 10 10 10 9 9 10 10 10 8 6 6 6 4 3 3 4 8 13 17 15 11 10 10 10 9 9 10 11 10 10 11 11 10 9 7 4 nan
nan 13 11 9 8 10 10 9 7 8 9 8 8 10 8 6 6 8 8 8 11 12 11 10 10 10 11 10 9 9 10 10 10 10 10 9 11 13 12 11 8 8 9 9 6 5 4 5 8 11 16 16 12 11 10 10 9 10 10 11 11 10 10 10 9 8 6 2 nan
nan 11 9 8 9 10 10 8 7 7 9 9 9 9 6 5 7 9 8 9 12 12 12 12 11 10 10 9 10 10 10 9 10 10 10 10 11 12 11 10 9 9 9 10 7 6 6 6 7 10 14 15 12 11 11 10 10 10 10 11 10 10 10 9 9 9 8 6 nan
nan nan nan nan nan nan nan nan nan nan nan nan nan nan nan nan nan nan nan nan nan nan nan nan nan nan nan nan nan nan nan nan nan nan nan nan nan nan nan nan nan nan nan nan nan nan nan nan nan nan nan nan nan nan nan nan nan nan nan nan nan nan nan nan nan nan nan nan nan
CAPE
nan nan nan nan nan nan nan nan nan nan nan nan nan nan nan nan nan nan nan nan nan nan nan nan nan nan nan nan nan nan nan nan nan nan nan nan nan nan nan nan nan nan nan nan nan nan nan nan nan nan nan nan nan nan nan nan nan nan nan nan nan nan nan nan nan nan nan nan nan
nan nan nan nan nan nan nan nan nan nan nan nan nan nan nan nan nan nan nan nan nan nan nan nan nan nan nan nan nan nan nan nan nan nan nan nan nan nan nan nan nan nan nan nan nan nan nan nan nan nan nan nan nan nan nan nan nan nan nan nan nan nan nan nan nan nan nan nan nan
nan nan nan nan nan nan nan nan nan nan nan nan nan nan nan nan nan nan nan nan nan nan nan nan nan nan nan nan nan nan nan nan nan nan nan nan nan nan nan nan nan nan nan nan nan nan nan nan nan nan nan nan nan nan nan nan nan nan nan nan nan nan nan nan nan nan nan nan nan
nan nan nan nan nan nan nan nan nan nan nan nan nan nan nan nan nan nan nan nan nan nan nan nan nan nan nan nan nan nan nan nan nan nan nan nan nan nan nan nan nan nan nan nan nan nan nan nan nan nan nan nan nan nan nan nan nan nan nan nan nan nan nan nan nan nan nan nan nan
nan nan nan nan nan nan nan nan nan nan nan nan nan nan nan nan nan nan nan nan nan nan nan nan nan nan nan nan nan nan nan nan nan nan nan nan nan nan nan nan nan nan nan nan nan nan nan nan nan nan nan nan nan nan nan nan nan nan nan nan nan nan nan nan nan nan nan nan nan
nan nan nan nan nan nan nan nan nan nan nan nan nan nan nan nan nan nan nan nan nan nan nan nan nan nan nan nan nan nan nan nan nan nan nan nan nan nan nan nan nan nan nan nan nan nan nan nan nan nan nan nan nan nan nan nan nan nan nan nan nan nan nan nan nan nan nan nan nan
nan nan nan nan nan nan nan nan nan nan nan nan nan nan nan nan nan nan nan nan nan nan nan nan nan nan nan nan nan nan nan nan nan nan nan nan nan nan nan nan nan nan nan nan nan nan nan nan nan nan nan nan nan nan nan nan nan nan nan nan nan nan nan nan nan nan nan nan nan
nan nan nan nan nan nan nan nan nan nan nan nan nan nan nan nan nan nan nan nan nan nan nan nan nan nan nan nan nan nan nan nan nan nan nan nan nan nan nan nan nan nan nan nan nan nan nan nan nan nan nan nan nan nan nan nan nan nan nan nan nan nan nan nan nan nan nan nan nan
nan nan nan nan nan nan nan nan nan nan nan nan nan nan nan nan nan nan nan nan nan nan nan nan nan nan nan nan nan nan nan nan nan nan nan nan nan nan nan nan nan nan nan nan nan nan nan nan nan nan nan nan nan nan nan nan nan nan nan nan nan nan nan nan nan nan nan nan nan
nan nan nan nan nan nan nan nan nan nan nan nan nan nan nan nan nan nan nan nan nan nan nan nan nan nan nan nan nan nan nan nan nan nan nan nan nan nan nan nan nan nan nan nan nan nan nan nan nan nan nan nan nan nan nan nan nan nan nan nan nan nan nan nan nan nan nan nan nan
nan nan nan nan nan nan nan nan nan nan nan nan nan nan nan nan nan nan nan nan nan nan nan nan nan nan nan nan nan nan nan nan nan nan nan nan nan nan nan nan nan nan nan nan nan nan nan nan nan nan nan nan nan nan nan nan nan nan nan nan nan nan nan nan nan nan nan nan nan
nan nan nan nan nan nan nan nan nan nan nan nan nan nan nan nan nan nan nan nan nan nan nan nan nan nan nan nan nan nan nan nan nan nan nan nan nan nan nan nan nan nan nan nan nan nan nan nan nan nan nan nan nan nan nan nan nan nan nan nan nan nan nan nan nan nan nan nan nan
nan nan nan nan nan nan nan nan nan nan nan nan nan nan nan nan nan nan nan nan nan nan nan nan nan nan nan nan nan nan nan nan nan nan nan nan nan nan nan nan nan nan nan nan nan nan nan nan nan nan nan nan nan nan nan nan nan nan nan nan nan nan nan nan nan nan nan nan nan
nan nan nan nan nan nan nan nan nan nan nan nan nan nan nan nan nan nan nan nan nan nan nan nan nan nan nan nan nan nan nan nan nan nan nan nan nan nan nan nan nan nan nan nan nan nan nan nan nan nan nan nan nan nan nan nan nan nan nan nan nan nan nan nan nan nan nan nan 1
nan nan nan nan nan nan nan nan nan nan nan nan nan nan nan nan nan nan nan nan nan nan nan nan nan nan nan nan nan nan nan nan nan nan nan nan nan nan nan nan nan nan nan nan nan nan nan nan nan nan nan nan nan nan nan nan nan nan nan nan nan nan nan nan nan nan nan nan nan
nan nan nan nan nan nan nan nan nan nan nan nan nan nan nan nan nan nan nan nan nan nan nan nan nan nan nan nan nan nan nan nan nan nan nan nan nan nan nan nan nan nan nan nan nan nan nan nan nan nan nan nan nan nan nan nan nan nan nan nan nan nan nan nan nan nan nan nan nan
nan nan nan nan nan nan nan nan nan nan nan nan nan nan nan nan nan nan nan nan nan nan nan nan nan nan nan nan nan nan nan nan nan nan nan nan nan nan nan nan nan nan nan nan nan nan nan nan nan nan nan nan nan nan nan nan nan nan nan nan nan nan nan nan nan nan nan nan nan
nan nan nan nan nan nan nan nan nan nan nan nan nan nan nan nan nan nan nan nan nan nan nan nan nan nan nan nan nan nan nan nan nan nan nan nan nan nan nan nan nan nan nan nan nan nan nan nan nan nan nan nan nan nan nan nan nan nan nan nan nan nan nan nan nan nan nan nan nan
nan nan nan nan nan nan nan nan nan nan nan nan nan nan nan nan nan nan nan nan nan nan nan nan nan nan nan nan nan nan nan nan nan nan nan nan nan nan nan nan nan nan nan nan nan nan nan nan nan nan nan nan nan nan nan nan nan nan nan nan nan nan nan nan nan nan nan nan nan
nan nan nan nan nan nan nan nan nan nan nan nan nan nan nan nan nan nan nan nan nan nan nan nan nan nan nan nan nan nan nan nan nan nan nan nan nan nan nan nan nan nan nan nan nan nan nan nan nan nan nan nan nan nan nan nan nan nan nan nan nan nan nan nan nan nan nan nan nan
nan nan nan nan nan nan nan nan nan nan nan nan nan nan nan nan nan nan nan nan nan nan nan nan nan nan nan nan nan nan nan nan nan nan nan nan nan nan nan nan nan nan nan nan nan nan nan nan nan nan nan nan nan nan nan nan nan nan nan nan nan nan nan nan nan nan nan nan nan
nan nan nan nan nan nan nan nan nan nan nan nan nan nan nan nan nan nan nan nan nan nan nan nan nan nan nan nan nan nan nan nan nan nan nan nan nan nan nan nan nan nan nan nan nan nan nan nan nan nan nan nan nan nan nan nan nan nan nan nan nan nan nan nan nan nan nan nan nan
nan nan nan nan nan nan nan nan nan nan nan nan nan nan nan nan nan nan nan nan nan nan nan nan nan nan nan nan nan nan nan nan nan nan nan nan nan nan nan nan nan nan nan nan nan nan nan nan nan nan nan nan nan nan nan nan nan nan nan nan nan nan nan nan nan nan nan nan nan
nan nan nan nan nan nan nan nan nan nan nan nan nan nan nan nan nan nan nan nan nan nan nan nan nan nan nan nan nan nan nan nan nan nan nan nan nan nan nan nan nan nan nan nan nan nan nan nan nan nan nan nan nan nan nan nan nan nan nan nan nan nan nan nan nan nan nan nan nan
nan nan nan nan nan nan nan nan nan nan nan nan nan nan nan nan nan nan nan nan nan nan nan nan nan nan nan nan nan nan nan nan nan nan nan nan nan nan nan nan nan nan nan nan nan nan nan nan nan nan nan nan nan nan nan nan nan nan nan nan nan nan nan nan nan nan nan nan nan
nan nan nan nan nan nan nan nan nan nan nan nan nan nan nan nan nan nan nan nan nan nan nan nan nan nan nan nan nan nan nan nan nan nan nan nan nan nan nan nan nan nan nan nan nan nan nan nan nan nan nan nan nan nan nan nan nan nan nan nan nan nan nan nan nan nan nan nan nan
nan nan nan nan nan nan nan nan nan nan nan nan nan nan nan nan nan nan nan nan nan nan nan nan nan nan nan nan nan nan nan nan nan nan nan nan nan nan nan nan nan nan nan nan nan nan nan nan nan nan nan nan nan nan nan nan nan nan nan nan nan nan nan nan nan nan nan nan nan
nan nan nan nan nan nan nan nan nan nan nan nan nan nan nan nan nan nan nan nan nan nan nan nan nan nan nan nan nan nan nan nan nan nan nan nan nan nan nan nan nan nan nan nan nan nan nan nan nan nan nan nan nan nan nan nan nan nan nan nan nan nan nan nan nan nan nan nan nan
nan nan nan nan nan nan nan nan nan nan nan nan nan nan nan nan nan nan nan nan nan nan nan nan nan nan nan nan nan nan nan nan nan nan nan nan nan nan nan nan nan nan nan nan nan nan nan nan nan nan nan nan nan nan nan nan nan nan nan nan nan nan nan nan nan nan nan nan nan
nan nan nan nan nan nan nan nan nan nan nan nan nan nan nan nan nan nan nan nan nan nan nan nan nan nan nan nan nan nan nan nan nan nan nan nan nan nan nan nan nan nan nan nan nan nan nan nan nan nan nan nan nan nan nan nan nan nan nan nan nan nan nan nan nan nan nan nan nan
nan nan nan nan nan nan nan nan nan nan nan nan nan nan nan nan nan nan nan nan nan nan nan nan nan nan nan nan nan nan nan nan nan nan nan nan nan nan nan nan nan nan nan nan nan nan nan nan nan nan nan nan nan nan nan nan nan nan nan nan nan nan nan nan nan nan nan nan nan
nan nan nan nan nan nan nan nan nan nan nan nan nan nan nan nan nan nan nan nan nan nan nan nan nan nan nan nan nan nan nan nan nan nan nan nan nan nan nan nan nan nan nan nan nan nan nan nan nan nan nan nan nan nan nan nan nan nan nan nan nan nan nan nan nan nan nan nan nan
nan nan nan nan nan nan nan nan nan nan nan nan nan nan nan nan nan nan nan nan nan nan nan nan nan nan nan nan nan nan nan nan nan nan nan nan nan nan nan nan nan nan nan nan nan nan nan nan nan nan nan nan nan nan nan nan nan nan nan nan nan nan nan nan nan nan nan nan nan
nan nan nan nan nan nan nan nan nan nan nan nan nan nan nan nan nan nan nan nan nan nan nan nan nan nan nan nan nan nan nan nan nan nan nan nan nan nan nan nan nan 1 1 nan nan nan nan nan nan nan nan nan nan nan nan nan nan nan nan nan nan nan nan nan nan nan nan nan nan
nan nan nan nan nan nan nan nan nan nan nan nan nan nan nan nan nan nan nan nan nan nan nan nan nan nan nan nan nan nan nan nan nan nan nan nan nan nan nan nan nan 0 0 nan nan nan nan nan nan nan nan nan nan nan nan nan nan nan nan nan nan nan nan nan nan nan nan nan nan
nan nan nan nan nan nan nan nan nan nan nan nan nan nan nan nan nan nan nan nan nan nan nan nan nan nan nan nan nan nan nan nan nan nan nan nan nan nan nan nan nan 0 0 nan nan nan nan nan nan nan nan nan nan nan nan nan nan nan nan nan nan nan nan nan nan nan nan nan nan
nan nan nan nan nan nan nan nan nan nan nan nan nan nan nan nan nan nan nan nan nan nan nan nan nan nan nan nan nan nan nan nan nan nan nan nan nan nan nan nan nan nan nan nan nan nan nan nan nan nan nan nan nan nan nan nan nan nan nan nan nan nan nan nan nan nan nan nan nan
nan nan nan nan nan nan nan nan nan nan nan nan nan nan nan nan nan nan nan nan nan nan nan nan nan nan nan nan nan nan nan nan nan nan nan nan nan nan nan nan nan nan nan nan nan nan nan nan nan nan nan nan nan nan nan nan nan nan nan nan nan nan nan nan nan nan nan nan nan
nan nan nan nan nan nan nan nan nan nan nan nan nan nan nan nan nan nan nan nan nan nan nan nan nan nan nan nan nan nan nan nan nan nan nan nan nan nan nan nan nan nan nan nan nan nan nan nan nan nan nan nan nan nan nan nan nan nan nan nan nan nan nan nan nan nan nan nan nan
nan nan nan nan nan nan nan nan nan nan nan nan nan nan nan nan nan nan nan nan nan nan nan nan nan nan nan nan nan nan nan nan nan nan nan nan nan nan nan nan nan nan nan nan nan nan nan nan nan nan nan nan nan nan nan nan nan nan nan nan nan nan nan nan nan nan nan nan 0
nan nan nan nan nan nan nan nan nan nan nan nan nan nan nan nan nan nan nan nan nan nan nan nan nan nan nan nan nan nan nan nan nan nan nan nan nan nan nan nan nan nan nan nan nan nan nan nan nan nan nan nan nan nan nan nan nan nan nan nan nan nan nan nan nan nan nan nan nan